Location: Unspecified
(0.0000°N, 0.0000°E)
Time: 02:57:04
(UTC+00:00)

Explorer 11/Cluster Stage 4 - Pass Details

Date: 20 December 2018
Orbit: 467 x 1260 km, 28.8° (Epoch: 19 March)

Event Time Altitude Azimuth Distance (km) Brightness Sun altitude
Rises 20:59:42 0° 265° (W) 4,171 11.0 -40.9°
Reaches altitude 10° 21:03:18 10° 277° (W) 3,145 10.1 -41.6°
Enters shadow 21:06:36 20° 297° (WNW) 2,375 9.2 -42.3°
